Location: Unspecified
(0.0000°N, 0.0000°E)
Time: 14:16:26
(UTC+01:00)

Amateur Radio Satellites - All Passes

Search period start: 21 January 2017 13:46
Search period end: 22 January 2017 13:46
Location: Unspecified, 0.0000°N, 0.0000°E

Satellite Date Start Highest point End Downlink Frequencies (MHz)
Time Altitude Azimuth
TISAT 1 21 Jan 13:53:44 13:57:38 38° 102° (ESE) 14:01:33 437.305
AIST 1 21 Jan 14:05:12 14:09:29 51° 94° (E) 14:13:43
SPROUT 21 Jan 14:07:08 14:08:10 11° 282° (WNW) 14:09:12 437.525
UKube-1 21 Jan 14:08:49 14:12:22 26° 282° (WNW) 14:15:56 .
SRMSAT 21 Jan 14:11:42 14:17:17 41° 340° (NNW) 14:22:52 437.500
DX 1 21 Jan 14:12:12 14:14:52 16° 282° (WNW) 14:17:33 434.975-435.025
AO-85 21 Jan 14:14:02 14:16:45 14° 291° (WNW) 14:19:23 145.980
YUBILEINY 21 Jan 14:16:55 14:25:20 51° 93° (E) 14:33:45 435.215
CUSAT 1 21 Jan 14:23:38 14:27:36 16° 80° (E) 14:31:09 437.405
ITUPSAT 1 21 Jan 14:25:16 14:27:21 13° 103° (ESE) 14:29:26 437.325
Oscar 19 21 Jan 14:34:30 14:39:26 44° 258° (WSW) 14:44:20 437.125/150
JUGNU 21 Jan 14:34:36 14:36:48 12° 351° (N) 14:39:02 437.505
Cosmos 2491 21 Jan 14:38:11 14:47:00 84° 87° (E) 14:55:53 435.465 / 435.565
Gurwin Techsat 1B 21 Jan 14:55:05 15:00:18 58° 258° (WSW) 15:05:30 435.225
BEESAT 3 21 Jan 14:56:50 15:00:05 26° 112° (ESE) 15:03:21 437.485
BEESAT 21 Jan 14:56:59 15:01:21 36° 102° (ESE) 15:05:43 436.000
SWISSCUBE 21 Jan 14:58:32 15:03:05 44° 103° (ESE) 15:07:38 437.505
Cosmos 2504 21 Jan 14:59:06 15:07:44 54° 93° (E) 15:16:07 435.465 / 435.565
ITAMSAT 1 21 Jan 15:19:34 15:24:14 34° 77° (ENE) 15:28:52 435.822/435.867
DANDE 21 Jan 15:19:42 15:25:32 21° 83° (E) 15:30:57 436.750
BEESAT 2 21 Jan 15:43:05 15:46:45 41° 112° (ESE) 15:50:25 435.950
AO-7 21 Jan 15:53:16 16:01:24 57° 74° (ENE) 16:09:30 29.400- 29.500
ITUPSAT 1 21 Jan 16:00:37 16:04:53 33° 282° (WNW) 16:09:11 437.325
CUSAT 1 21 Jan 16:02:50 16:09:35 45° 268° (W) 16:15:03 437.405
SRMSAT 21 Jan 16:02:58 16:06:53 18° 346° (NNW) 16:10:48 437.500
YUBILEINY 21 Jan 16:15:55 16:21:44 20° 273° (W) 16:27:35 435.215
MOZHAYETS 4 21 Jan 16:21:37 16:26:14 76° 282° (WNW) 16:30:52
AUBIESAT-1 21 Jan 16:22:50 16:25:30 22° 106° (ESE) 16:28:17 437.475
BEESAT 21 Jan 16:37:22 16:38:50 11° 283° (WNW) 16:40:19 436.000
KKS-1 21 Jan 16:54:39 16:59:03 70° 103° (ESE) 17:03:28 437.445
Cosmos 2504 21 Jan 16:54:49 17:00:40 19° 272° (W) 17:06:27 435.465 / 435.565
DANDE 21 Jan 17:00:10 17:08:08 51° 267° (W) 17:15:14 436.750
ITAMSAT 1 21 Jan 17:00:44 17:03:24 14° 257° (WSW) 17:06:04 435.822/435.867
CUBESAT XI-V 21 Jan 17:10:07 17:14:28 41° 101° (ESE) 17:18:48 437.345
M-CUBED/EXP-1 PRIME 21 Jan 17:21:24 17:23:54 21° 285° (WNW) 17:26:30 437.505
STARS 21 Jan 17:45:11 17:49:30 62° 282° (WNW) 17:53:51 437.465
AO-7 21 Jan 17:48:27 17:53:45 19° 253° (WSW) 17:59:05 29.400- 29.500
AIST 2 21 Jan 17:50:54 17:53:03 14° 112° (ESE) 17:55:11 435.215
SRMSAT 21 Jan 17:55:59 17:57:02 10° 355° (N) 17:58:05 437.500
GOMX 1 21 Jan 17:56:38 18:01:55 49° 78° (ENE) 18:07:09 467.674
BRITE-PL 21 Jan 17:57:25 18:02:46 57° 258° (WSW) 18:08:20 437.365/2234.400
O/OREOS (USA 219) 21 Jan 18:08:50 18:13:21 75° 255° (WSW) 18:17:56 437.305
JUGNU 21 Jan 18:13:55 18:17:04 15° 12° (NNE) 18:20:14 437.505
CUTE-I 21 Jan 18:16:33 18:20:54 26° 77° (ENE) 18:25:13 437.470
HORYU 2 21 Jan 18:16:54 18:21:20 79° 257° (WSW) 18:25:43 437.375
DOVE 4 21 Jan 18:31:06 18:36:04 42° 79° (E) 18:40:50 437.250
LilacSat-2 21 Jan 18:31:18 18:34:51 40° 79° (ENE) 18:38:22 437.200
Cubesat XI-IV 21 Jan 18:59:02 19:04:23 84° 79° (E) 19:09:42 437.490
SO-50 21 Jan 19:01:32 19:05:59 88° 68° (ENE) 19:10:29 436.795
NOAA 15 21 Jan 19:04:17 19:09:34 78° 257° (WSW) 19:14:50 137.62
GONETS M04 21 Jan 19:07:01 19:12:40 19° 93° (E) 19:18:18
Cosmos 2499 21 Jan 19:10:23 19:17:48 30° 94° (E) 19:24:54 435.465 / 435.565
NOAA 18 21 Jan 19:11:44 19:17:10 55° 77° (ENE) 19:22:31 137.9125
STRAND 1 21 Jan 19:20:11 19:24:24 26° 103° (ESE) 19:28:37 437.568
CUTE 1.7 + AOD 2 21 Jan 19:21:33 19:22:20 10° 78° (ENE) 19:23:08 437.475
AIST 2 21 Jan 19:28:12 19:31:14 20° 292° (WNW) 19:34:17 435.215
GOMX 1 21 Jan 19:38:02 19:39:38 11° 258° (WSW) 19:41:16 467.674
SRMSAT 21 Jan 19:45:50 19:47:26 11° 6° (N) 19:49:02 437.500
CANX-2 21 Jan 19:47:55 19:51:45 34° 79° (ENE) 19:55:34 2200.000
CINEMA 3 21 Jan 19:52:29 19:57:15 77° 78° (ENE) 20:01:45 145.822/145.860
CUTE-I 21 Jan 19:56:49 20:00:40 20° 257° (WSW) 20:04:29 437.470
SEEDS 21 Jan 19:57:15 20:00:31 22° 79° (ENE) 20:03:46 437.485
JUGNU 21 Jan 20:01:26 20:06:39 31° 19° (NNE) 20:11:54 437.505
COMPASS 1 21 Jan 20:01:31 20:03:48 14° 78° (ENE) 20:06:04 437.405
HO-68 21 Jan 20:07:57 20:15:04 64° 75° (ENE) 20:22:09 435.675
DOVE 4 21 Jan 20:11:26 20:13:21 12° 257° (WSW) 20:15:17 437.250
AAUSAT CUBESAT 2 21 Jan 20:11:43 20:13:57 14° 78° (ENE) 20:16:10 437.432
ISS 21 Jan 20:30:02 20:33:00 32° 305° (NW) 20:35:58 145.825
CUBEBUG 2 21 Jan 20:40:15 20:44:28 52° 79° (E) 20:48:33 437.445
CUTE 1.7 + AOD 2 21 Jan 20:54:15 20:57:54 28° 259° (WSW) 21:01:32 437.475
FUNcube-1 21 Jan 20:59:27 21:02:43 23° 79° (ENE) 21:05:58 145.935
STRAND 1 21 Jan 20:59:43 21:03:18 19° 283° (WNW) 21:06:54 437.568
GONETS M04 21 Jan 21:00:46 21:09:06 51° 273° (W) 21:17:26
Cosmos 2499 21 Jan 21:02:45 21:10:33 36° 272° (W) 21:18:05 435.465 / 435.565
UWE-3 21 Jan 21:06:12 21:10:25 68° 80° (E) 21:14:33 435.000/436.395/437.385
ZACube-1 21 Jan 21:22:23 21:26:30 58° 78° (ENE) 21:30:33 437.345
SRMSAT 21 Jan 21:33:13 21:37:31 20° 15° (NNE) 21:41:47 437.500
SEEDS 21 Jan 21:33:49 21:35:56 14° 258° (WSW) 21:38:03 437.485
COMPASS 1 21 Jan 21:35:56 21:39:04 21° 259° (WSW) 21:42:12 437.405
PHONESAT 2.4 21 Jan 21:36:03 21:37:02 12° 138° (SE) 21:38:00 2401.200-2431.200
AAUSAT CUBESAT 2 21 Jan 21:46:01 21:49:09 21° 259° (WSW) 21:52:16 437.432
JUGNU 21 Jan 21:49:48 21:55:48 83° 21° (NNE) 22:01:50 437.505
PRISM 21 Jan 21:53:35 21:57:37 66° 102° (ESE) 22:01:38 437.425
Oscar 11 21 Jan 21:56:18 22:00:30 53° 259° (WSW) 22:04:41 145.826/435.025
HO-68 21 Jan 21:59:27 22:02:23 13° 254° (WSW) 22:05:20 435.675
FUNcube-1 21 Jan 22:36:49 22:38:41 13° 258° (WSW) 22:40:32 145.935
UNISAT 6 21 Jan 22:38:39 22:43:11 63° 102° (ESE) 22:47:49 437.425
TIGRISAT 21 Jan 22:51:32 22:56:07 87° 105° (ESE) 23:00:49 435.000
DELFI C3 21 Jan 22:51:52 22:55:24 31° 259° (W) 22:58:56 145.870
RS-15 21 Jan 22:57:17 23:08:34 82° 110° (ESE) 23:20:27 29.354- 29.394
HUMSAT D 21 Jan 22:58:20 23:02:20 59° 258° (WSW) 23:06:20 437.325/437.525
ANTELSAT 21 Jan 23:07:13 23:11:41 53° 281° (WNW) 23:16:14 437.575/2403.000
PHONESAT 2.4 21 Jan 23:09:45 23:10:51 12° 317° (NW) 23:11:56 2401.200-2431.200
SRMSAT 21 Jan 23:21:17 23:27:02 47° 20° (NNE) 23:32:45 437.500
JAS-2 21 Jan 23:23:08 23:30:50 61° 103° (ESE) 23:38:27 435.910
CUBEBUG 1 21 Jan 23:27:22 23:27:48 10° 78° (ENE) 23:28:13 437.445
JUGNU 21 Jan 23:39:27 23:44:56 36° 200° (SSW) 23:50:25 437.505
AISAT 21 Jan 23:46:16 23:47:36 11° 78° (ENE) 23:48:55 437.250
QB50P1 21 Jan 23:51:34 23:55:15 30° 102° (ESE) 23:59:00 145.935-145.965
POLYITAN 1 21 Jan 23:55:57 23:59:51 35° 102° (ESE) 00:03:45 437.675
QB50P2 21 Jan 23:57:09 00:01:08 40° 102° (ESE) 00:05:09 145.880/145.840
ESTCUBE 1 22 Jan 00:10:39 00:15:10 85° 257° (WSW) 00:19:42 437.505/2401.250
VELOX 1 22 Jan 00:16:57 00:20:51 30° 78° (ENE) 00:24:43 145.980
POPSAT HIP 1 22 Jan 00:18:03 00:22:17 74° 102° (ESE) 00:26:32 437.405
BY70-1 22 Jan 00:22:02 00:22:22 10° 261° (W) 00:22:43 436.1900
PCSat 22 Jan 00:22:55 00:28:09 52° 289° (WNW) 00:33:23 145.827
DUCHIFAT 1 22 Jan 00:27:13 00:31:25 84° 103° (ESE) 00:35:41 145.980
50 SAT 22 Jan 00:29:10 00:32:13 27° 79° (ENE) 00:35:16 437.505
NANOSAT C BR1 22 Jan 00:33:28 00:37:40 69° 282° (WNW) 00:41:54 145.865
SPROUT 22 Jan 00:35:50 00:39:48 36° 78° (ENE) 00:43:42 437.525
UKube-1 22 Jan 00:42:19 00:45:05 17° 78° (ENE) 00:47:50 .
AO-85 22 Jan 00:44:29 00:48:23 54° 69° (ENE) 00:52:32 145.980
DX 1 22 Jan 00:44:50 00:48:36 28° 78° (ENE) 00:52:19 434.975-435.025
BUGSAT 1 22 Jan 00:56:30 01:00:31 57° 102° (ESE) 01:04:36 437.445
CUBEBUG 1 22 Jan 00:59:48 01:03:48 33° 258° (WSW) 01:07:47 437.445
SRMSAT 22 Jan 01:10:21 01:16:15 63° 201° (SSW) 01:22:09 437.500
JAS-2 22 Jan 01:10:47 01:15:24 17° 284° (WNW) 01:20:03 435.910
RS-15 22 Jan 01:15:13 01:20:59 15° 295° (WNW) 01:26:56 29.354- 29.394
Cosmos 2491 22 Jan 01:18:45 01:24:26 19° 93° (E) 01:30:04 435.465 / 435.565
AISAT 22 Jan 01:19:49 01:23:46 31° 258° (WSW) 01:27:42 437.250
Oscar 19 22 Jan 01:29:39 01:34:01 28° 103° (ESE) 01:38:22 437.125/150
QB50P1 22 Jan 01:30:10 01:30:45 10° 282° (WNW) 01:31:21 145.935-145.965
JUGNU 22 Jan 01:30:47 01:34:26 16° 193° (SSW) 01:38:06 437.505
Gurwin Techsat 1B 22 Jan 01:54:40 01:59:02 26° 103° (ESE) 02:03:23 435.225
VELOX 1 22 Jan 01:55:25 01:57:00 12° 257° (WSW) 01:58:36 145.980
TISAT 1 22 Jan 01:58:50 02:02:53 45° 78° (ENE) 02:06:52 437.305
AIST 1 22 Jan 02:11:41 02:15:54 73° 86° (E) 02:20:09
UKube-1 22 Jan 02:17:40 02:20:50 20° 258° (WSW) 02:24:00 .
DX 1 22 Jan 02:22:48 02:24:30 12° 257° (WSW) 02:26:11 434.975-435.025
ITUPSAT 1 22 Jan 02:45:47 02:49:36 24° 78° (ENE) 02:53:25 437.325
BEESAT 3 22 Jan 02:48:38 02:52:03 28° 68° (ENE) 02:55:27 437.485
YUBILEINY 22 Jan 02:50:07 02:58:53 86° 267° (W) 03:07:37 435.215
CUSAT 1 22 Jan 02:58:51 03:01:53 25° 90° (E) 03:05:37 437.405
SRMSAT 22 Jan 03:00:53 03:05:39 24° 197° (SSW) 03:10:24 437.500
Oscar 19 22 Jan 03:09:50 03:13:03 17° 283° (WNW) 03:16:17 437.125/150
Cosmos 2504 22 Jan 03:11:31 03:18:34 66° 87° (E) 03:25:50 435.465 / 435.565
Cosmos 2491 22 Jan 03:12:31 03:20:52 52° 273° (W) 03:29:13 435.465 / 435.565
BEESAT 22 Jan 03:18:30 03:23:15 71° 78° (ENE) 03:27:57 436.000
SWISSCUBE 22 Jan 03:20:16 03:25:02 87° 79° (ENE) 03:29:46 437.505
JUGNU 22 Jan 03:24:15 03:24:29 10° 183° (S) 03:24:44 437.505
Gurwin Techsat 1B 22 Jan 03:34:54 03:38:42 20° 283° (WNW) 03:42:30 435.225
BEESAT 2 22 Jan 03:36:08 03:39:58 44° 68° (ENE) 03:43:46 435.950
M-CUBED/EXP-1 PRIME 22 Jan 03:47:15 03:49:25 13° 75° (ENE) 03:51:33 437.505
ITAMSAT 1 22 Jan 03:53:53 03:59:06 88° 281° (W) 04:04:21 435.822/435.867
DANDE 22 Jan 04:04:49 04:07:07 23° 92° (E) 04:09:43 436.750
AO-7 22 Jan 04:19:27 04:27:47 89° 106° (ESE) 04:36:06 29.400- 29.500
AUBIESAT-1 22 Jan 04:20:52 04:24:51 29° 75° (ENE) 04:28:39 437.475
ITUPSAT 1 22 Jan 04:24:09 04:27:10 17° 257° (WSW) 04:30:11 437.325
MOZHAYETS 4 22 Jan 04:38:36 04:42:55 43° 258° (WSW) 04:47:13
BRITE-PL 22 Jan 04:49:11 04:51:34 15° 101° (E) 04:53:54 437.365/2234.400
SRMSAT 22 Jan 04:53:13 04:55:33 12° 189° (S) 04:57:52 437.500
KKS-1 22 Jan 05:07:05 05:11:34 78° 257° (WSW) 05:16:00 437.445
JUGNU 22 Jan 05:12:53 05:14:42 11° 173° (S) 05:16:31 437.505
M-CUBED/EXP-1 PRIME 22 Jan 05:19:29 05:23:37 32° 254° (WSW) 05:27:37 437.505
CUBESAT XI-V 22 Jan 05:28:01 05:32:41 75° 78° (ENE) 05:37:20 437.345
AIST 2 22 Jan 05:48:26 05:51:20 18° 68° (ENE) 05:54:13 435.215
STARS 22 Jan 05:56:13 06:00:24 42° 258° (WSW) 06:04:33 437.465
AUBIESAT-1 22 Jan 05:56:37 05:58:53 14° 253° (WSW) 06:01:08 437.475
Cubesat XI-IV 22 Jan 06:00:48 06:04:00 16° 103° (ESE) 06:07:12 437.490
NOAA 15 22 Jan 06:03:48 06:07:23 19° 103° (ESE) 06:10:59 137.62
NOAA 18 22 Jan 06:19:15 06:21:05 12° 104° (ESE) 06:22:54 137.9125
O/OREOS (USA 219) 22 Jan 06:20:15 06:24:30 41° 284° (WNW) 06:28:42 437.305
GOMX 1 22 Jan 06:21:07 06:25:16 86° 281° (W) 06:29:28 467.674
LilacSat-2 22 Jan 06:25:39 06:29:10 33° 101° (ESE) 06:32:42 437.200
BRITE-PL 22 Jan 06:26:42 06:29:50 20° 283° (WNW) 06:32:54 437.365/2234.400
HORYU 2 22 Jan 06:29:14 06:33:34 52° 282° (WNW) 06:37:56 437.375
DOVE 4 22 Jan 06:51:49 06:55:58 72° 102° (ESE) 07:00:18 437.250
CUTE-I 22 Jan 06:54:46 07:00:06 77° 103° (ESE) 07:05:28 437.470
JUGNU 22 Jan 07:00:08 07:04:32 21° 164° (SSE) 07:08:55 437.505
SO-50 22 Jan 07:14:08 07:18:46 49° 292° (WNW) 07:23:22 436.795
Cosmos 2499 22 Jan 07:20:25 07:26:37 33° 88° (E) 07:33:03 435.465 / 435.565
CUTE 1.7 + AOD 2 22 Jan 07:26:33 07:28:37 13° 102° (ESE) 07:30:40 437.475
AIST 2 22 Jan 07:26:43 07:29:32 17° 248° (WSW) 07:32:21 435.215
GONETS M04 22 Jan 07:38:12 07:46:17 40° 87° (E) 07:54:19
Cubesat XI-IV 22 Jan 07:39:02 07:43:46 33° 283° (WNW) 07:48:33 437.490
NOAA 15 22 Jan 07:42:28 07:46:53 28° 283° (WNW) 07:51:19 137.62
STRAND 1 22 Jan 07:52:00 07:57:03 65° 78° (ENE) 08:02:05 437.568
CANX-2 22 Jan 07:54:06 07:58:09 43° 101° (ESE) 08:02:12 2200.000
NOAA 18 22 Jan 07:56:14 08:01:25 46° 283° (WNW) 08:06:39 137.9125
HO-68 22 Jan 07:59:40 08:06:35 53° 104° (ESE) 08:13:30 435.675
SEEDS 22 Jan 08:02:10 08:05:42 26° 102° (ESE) 08:09:13 437.485
ISS 22 Jan 08:03:39 08:06:50 56° 234° (SW) 08:10:02 145.825
COMPASS 1 22 Jan 08:05:13 08:07:52 16° 102° (ESE) 08:10:30 437.405
CINEMA 3 22 Jan 08:08:22 08:12:43 64° 281° (W) 08:17:20 145.822/145.860
AAUSAT CUBESAT 2 22 Jan 08:14:52 08:17:25 16° 102° (ESE) 08:19:56 437.432
SRMSAT 22 Jan 08:32:59 08:36:09 15° 168° (SSE) 08:39:18 437.500
JUGNU 22 Jan 08:48:06 08:53:49 53° 159° (SSE) 08:59:30 437.505
CUBEBUG 2 22 Jan 08:51:45 08:56:18 81° 101° (ESE) 09:01:01 437.445
CUTE 1.7 + AOD 2 22 Jan 09:00:45 09:04:10 24° 282° (WNW) 09:07:35 437.475
FUNcube-1 22 Jan 09:07:52 09:11:56 34° 102° (ESE) 09:16:04 145.935
Cosmos 2499 22 Jan 09:14:00 09:19:24 23° 266° (W) 09:25:02 435.465 / 435.565
UWE-3 22 Jan 09:16:36 09:21:09 82° 281° (W) 09:25:49 435.000/436.395/437.385
ZACube-1 22 Jan 09:31:29 09:36:01 83° 104° (ESE) 09:40:37 437.345
GONETS M04 22 Jan 09:35:46 09:42:40 26° 267° (W) 09:49:38
SEEDS 22 Jan 09:39:42 09:41:07 11° 282° (WNW) 09:42:30 437.485
COMPASS 1 22 Jan 09:40:17 09:43:08 18° 282° (WNW) 09:46:00 437.405
AAUSAT CUBESAT 2 22 Jan 09:49:43 09:52:36 18° 282° (WNW) 09:55:29 437.432
HO-68 22 Jan 09:49:57 09:53:57 16° 285° (WNW) 09:57:58 435.675
PRISM 22 Jan 09:56:06 10:00:15 73° 79° (E) 10:04:24 437.425
Oscar 11 22 Jan 10:05:03 10:09:07 40° 282° (WNW) 10:13:12 145.826/435.025
PHONESAT 2.4 22 Jan 10:17:31 10:19:42 53° 224° (SW) 10:21:56 2401.200-2431.200
SRMSAT 22 Jan 10:20:39 10:25:52 31° 161° (SSE) 10:31:06 437.500
JUGNU 22 Jan 10:37:08 10:42:51 55° 339° (NNW) 10:48:34 437.505
RS-15 22 Jan 10:40:04 10:51:56 72° 69° (ENE) 11:03:08 29.354- 29.394
FUNcube-1 22 Jan 10:46:46 10:47:54 11° 282° (WNW) 10:49:02 145.935
DELFI C3 22 Jan 10:50:17 10:53:48 32° 282° (WNW) 10:57:20 145.870
UNISAT 6 22 Jan 10:52:20 10:56:42 84° 258° (WSW) 11:00:58 437.425
JAS-2 22 Jan 10:59:10 11:03:13 23° 77° (ENE) 11:07:19 435.910
HUMSAT D 22 Jan 11:02:47 11:06:57 51° 281° (WNW) 11:11:08 437.325/437.525
TIGRISAT 22 Jan 11:05:11 11:09:28 59° 258° (WSW) 11:13:39 435.000
PCSat 22 Jan 11:16:26 11:21:10 31° 71° (ENE) 11:25:55 145.827
ANTELSAT 22 Jan 11:21:17 11:25:08 32° 258° (WSW) 11:28:57 437.575/2403.000
CUBEBUG 1 22 Jan 11:35:31 11:37:42 14° 102° (ESE) 11:39:53 437.445
BY70-1 22 Jan 11:44:35 11:47:20 61° 281° (W) 11:49:49 436.1900
AISAT 22 Jan 11:56:23 11:59:02 16° 103° (ESE) 12:01:41 437.250
QB50P1 22 Jan 11:57:32 12:01:25 36° 78° (ENE) 12:05:16 145.935-145.965
POLYITAN 1 22 Jan 12:02:12 12:06:12 43° 78° (ENE) 12:10:10 437.675
QB50P2 22 Jan 12:03:24 12:07:30 50° 78° (ENE) 12:11:34 145.880/145.840
SRMSAT 22 Jan 12:09:11 12:15:10 84° 158° (SSE) 12:21:08 437.500
50 SAT 22 Jan 12:16:19 12:18:34 16° 102° (ESE) 12:20:48 437.505
POPSAT HIP 1 22 Jan 12:24:17 12:28:31 88° 260° (W) 12:32:42 437.405
ESTCUBE 1 22 Jan 12:24:49 12:29:11 53° 282° (WNW) 12:33:34 437.505/2401.250
JUGNU 22 Jan 12:27:40 12:32:05 22° 344° (NNW) 12:36:31 437.505
VELOX 1 22 Jan 12:28:08 12:32:16 42° 102° (ESE) 12:36:25 145.980
DUCHIFAT 1 22 Jan 12:32:43 12:36:55 80° 259° (WSW) 12:41:05 145.980
NANOSAT C BR1 22 Jan 12:39:21 12:43:28 55° 258° (WSW) 12:47:33 145.865
SPROUT 22 Jan 12:42:44 12:46:50 47° 102° (ESE) 12:50:57 437.525
JAS-2 22 Jan 12:44:31 12:48:06 19° 257° (WSW) 12:51:41 435.910
UKube-1 22 Jan 12:50:08 12:53:24 21° 102° (ESE) 12:56:41 .
DX 1 22 Jan 12:54:05 12:58:05 37° 102° (ESE) 13:02:05 434.975-435.025
AO-85 22 Jan 12:56:41 13:01:54 75° 291° (WNW) 13:06:48 145.980
RS-15 22 Jan 12:56:46 13:03:52 18° 248° (WSW) 13:10:51 29.354- 29.394
BUGSAT 1 22 Jan 12:59:40 13:03:46 64° 79° (E) 13:07:49 437.445
PCSat 22 Jan 13:00:54 13:04:18 17° 250° (WSW) 13:07:42 145.827
CUBEBUG 1 22 Jan 13:10:16 13:13:42 24° 282° (WNW) 13:17:09 437.445
YUBILEINY 22 Jan 13:29:32 13:35:56 23° 93° (E) 13:42:18 435.215
AISAT 22 Jan 13:31:54 13:35:13 21° 282° (WNW) 13:38:33 437.250
